Home > Weather > Verona > Past weeks

Flag for Italy Weather for the Past 2 Weeks in Verona, Italy

Now
39 °F

Fog.


Feels Like: 36 °F
Forecast: 35 / 49 °F
Wind: 5 mph from East

Location: Verona / Villafranca

Current Time: Feb 14, 2016 at 7:08:35 AM

Latest Report: Feb 14, 2016 at 6:20 AM


Visibility: 2 mi

Pressure: 29.39 "Hg

Humidity: 93%

Dew point: 37 °F

Location of VeronaLocation

Historic Weather in Verona — Graph

°F

Verona Temperature Yesterday

Maximum temperature yesterday: 48 °F (at 1:50 PM)
Minimum temperature yesterday: 36 °F (at 3:50 AM)
Average temperature yesterday: 41 °F

High & Low Weather Summary for the Past Weeks

 TemperatureHumidityPressure
High55 °F (Feb 10, 1:50 PM)100% (Jan 30, 7:20 PM)30.42 "Hg (Jan 30, 7:20 PM)
Low28 °F (Feb 5, 3:50 AM)28% (Feb 10, 2:20 PM)29.24 "Hg (Feb 10, 4:20 AM)
Average44 °F84%29.96 "Hg
* Reported Jan 30 5:50 AM — Feb 14 5:50 AM, Verona, Weather by CustomWeather, © 2016

Note: Actual official high and low records may vary slightly from our data, if they occured in-between our weather recording intervals... More about our weather records

Advertising

Verona Weather History for the Previous 24 Hours

 ConditionsComfort  
Time TempWeatherWind HumidityBarometerVisibility
5:50 AM
Sun, Feb 14
39 °FFog.1 mph93%29.36 "Hg2 mi
5:20 AM39 °FPassing clouds.2 mph93%29.42 "Hg2 mi
4:50 AM37 °FPassing clouds.3 mph100%29.42 "Hg2 mi
4:20 AM37 °FFog.1 mph93%29.42 "Hg2 mi
3:50 AM36 °FFog.7 mph100%29.42 "Hg2 mi
3:20 AM36 °FFog.3 mph93%29.42 "Hg3 mi
2:50 AM36 °FFog.3 mph100%29.45 "Hg3 mi
2:20 AM34 °FFog.3 mph100%29.45 "Hg3 mi
1:50 AM34 °FFog.3 mph100%29.45 "Hg3 mi
1:20 AM36 °FFog.3 mph93%29.45 "Hg3 mi
12:50 AM37 °FFog.1 mph93%29.45 "Hg3 mi
12:20 AM39 °FFog.5 mph93%29.45 "Hg3 mi
11:50 PM
Sat, Feb 13
39 °FPassing clouds.5 mph93%29.45 "Hg4 mi
11:20 PM41 °FPassing clouds.3 mph87%29.45 "Hg4 mi
10:20 PM43 °FPassing clouds.3 mph81%29.45 "Hg4 mi
9:50 PM41 °FPassing clouds.2 mph87%29.45 "Hg4 mi
9:20 PM43 °FPassing clouds.5 mph81%29.45 "Hg4 mi
8:50 PM41 °FPassing clouds.7 mph87%29.45 "Hg4 mi
8:20 PM41 °FPassing clouds.6 mph87%29.45 "Hg4 mi
7:50 PM41 °FPassing clouds.9 mph87%29.42 "Hg4 mi
7:20 PM43 °FPassing clouds.8 mph81%29.45 "Hg4 mi
6:50 PM43 °FPassing clouds.7 mph81%29.42 "Hg4 mi
6:20 PM45 °FPassing clouds.7 mph81%29.45 "Hg4 mi
5:50 PM45 °FPassing clouds.5 mph76%29.42 "Hg4 mi
5:20 PM45 °FScattered clouds.5 mph81%29.42 "Hg4 mi
4:50 PM46 °FClear.5 mph76%29.42 "Hg4 mi
4:20 PM46 °FClear.5 mph76%29.42 "Hg4 mi
3:50 PM48 °FClear.3 mph71%29.45 "Hg5 mi
3:20 PM46 °FClear.7 mph76%29.45 "Hg5 mi
2:50 PM46 °FPartly sunny.3 mph76%29.45 "Hg5 mi
2:20 PM46 °FBroken clouds.5 mph76%29.45 "Hg6 mi
1:50 PM48 °FBroken clouds.2 mph62%29.45 "Hg6 mi
1:20 PM46 °FBroken clouds.1 mph71%29.45 "Hg6 mi
12:50 PM46 °FPartly sunny.5 mph66%29.45 "Hg5 mi
12:20 PM46 °FPartly sunny.7 mph71%29.47 "Hg5 mi
11:50 AM46 °FClear.5 mph71%29.45 "Hg5 mi
11:20 AM45 °FClear.7 mph76%29.45 "Hg5 mi
10:50 AM45 °FClear.13 mph76%29.45 "Hg5 mi
10:20 AM41 °FClear.14 mph87%29.45 "Hg4 mi
9:50 AM39 °FFog.13 mph87%29.42 "Hg3 mi
9:20 AM39 °FFog.14 mph87%29.45 "Hg3 mi
8:50 AM37 °FFog.12 mph93%29.42 "Hg3 mi
8:20 AM36 °FFog.14 mph93%29.42 "Hg2 mi
7:50 AM36 °FFog.14 mph93%29.42 "Hg2 mi
7:20 AM36 °FFog.14 mph93%29.42 "Hg3 mi
Weather by CustomWeather, © 2016

See weather overviewHow to use our weather pages